Location: *
(43.9288°S, 174.5757°W)
Time: 12:30:46
(UTC+00:00)

Daily predictions for brighter satellites

Satellite Brightness Start Highest point End
(mag) Time Altitude Azimuth Time Altitude Azimuth Time Altitude Azimuth
Atlas Centaur 2 4.3 15:27:05 29° NNE 15:27:05 29° NNE 15:32:40 10° ENE
CZ-4C R/B 4.4 15:35:01 22° SSE 15:35:01 22° SSE 15:37:24 10° SSE
Cosmos 1980 Rocket 4.0 15:32:43 25° ENE 15:33:32 26° ENE 15:38:08 10° SE
USA 229 DEB 4.4 15:35:51 47° ESE 15:35:51 47° ESE 15:41:21 10° ENE
USA 229 4.4 15:35:57 47° ESE 15:35:57 47° ESE 15:41:27 10° ENE
Okean O Rocket 4.3 15:34:45 10° ENE 15:37:18 17° ESE 15:37:18 17° ESE
NOSS 3-1 (A) 4.4 15:47:29 41° SE 15:47:29 41° SE 15:52:24 10° ENE
Cosmos 1697 Rocket 3.8 16:02:54 36° SSE 16:02:54 36° SSE 16:06:13 10° SSE
USA 234 4.1 15:55:57 10° E 16:01:56 38° SSE 16:02:51 36° S
CZ-4B R/B 4.2 16:03:57 10° NE 16:09:13 44° ESE 16:12:45 20° S
Lacrosse 5 rocket 4.2 16:16:13 10° SSE 16:16:13 10° SSE 16:16:16 10° SSE
Cosmos 1953 4.4 16:14:22 25° ESE 16:14:51 26° ESE 16:18:15 10° NE
Cosmos 1937 Rocket 4.4 16:15:37 40° SE 16:16:34 45° ESE 16:21:32 10° NE
SJ 16-02 3.3 16:30:57 21° NNE 16:30:57 21° NNE 16:32:28 10° NNE
NOAA 6 4.0 16:25:31 10° NNE 16:30:40 83° ESE 16:30:46 82° SE
Cosmos 2360 4.1 16:33:53 78° SW 16:33:53 78° SW 16:39:29 10° SSE
Meteor 1-21 4.3 16:35:57 64° SSW 16:35:57 64° SSW 16:41:00 10° S
MOS 1-B 4.2 16:30:08 10° N 16:35:57 72° WNW 16:36:01 72° W
ATLAS CENTAUR R/B 4.4 16:35:46 10° SSE 16:36:57 11° SSE 16:38:08 10° SE
Cosmos 1340 Rocket 4.4 16:42:40 27° N 16:42:40 27° N 16:44:35 10° N
Cosmos 1536 Rocket 3.9 16:37:59 10° N 16:42:18 64° E 16:46:41 10° SSE
Cosmos 1726 2.9 16:43:49 51° E 16:43:49 51° E 16:47:11 10° NNE
H-2A R/B 4.3 16:43:35 10° N 16:45:35 29° N 16:45:35 29° N
CZ-4B DEB 4.3 16:44:54 10° N 16:49:50 53° WNW 16:49:50 53° WNW
NOSS 2-3 (E) 4.2 16:48:22 44° SW 16:50:36 85° WNW 16:55:56 10° NNE
Cosmos 1627 Rocket 4.4 16:46:08 10° N 16:52:22 83° W 16:58:47 10° S
Cosmos 2263 Rocket 2.9 16:49:22 19° SSW 16:53:24 54° ESE 16:58:58 10° NE
Envisat 3.1 16:51:10 10° NNE 16:56:16 78° ESE 17:01:07 12° S
NOAA 12 4.5 16:53:24 10° NNE 16:58:36 64° ESE 17:03:51 10° S
In-Cosmos 22 4.2 16:57:07 10° N 17:02:39 79° E 17:08:06 10° SSE
Cosmos 1461 2.5 17:03:00 81° SSW 17:03:11 87° ESE 17:07:03 10° NE
Cosmos 858 Rocket 4.4 17:03:38 39° SW 17:05:35 70° WNW 17:10:49 10° N
NOSS 3-1 (C) 3.7 17:06:25 39° WNW 17:06:47 40° WNW 17:11:47 10° N
ATLAS 5 CENTAUR R/B 4.0 17:01:00 10° N 17:07:40 42° ENE 17:13:56 10° SE
Cosmos 1437 4.1 17:05:36 10° NNE 17:08:26 38° E 17:11:20 10° SSE
Cosmos 2208 Rocket 4.1 17:04:14 10° NNW 17:09:26 79° ENE 17:14:41 10° SSE
Meteor 2-10 3.9 17:06:37 25° SSW 17:09:38 64° W 17:14:40 10° N
USA 267 3.2 17:03:17 10° SE 17:09:55 80° SW 17:14:36 21° WNW
Cosmos 990 Rocket 4.3 17:10:27 42° W 17:10:44 43° WNW 17:15:41 10° N
Cosmos 1814 Rocket 4.2 17:06:25 10° NNW 17:11:43 77° ENE 17:17:08 10° SSE
NOSS 2-3 (D) 4.3 17:10:05 31° SW 17:13:12 64° WNW 17:18:26 10° NNE
Okean O Rocket 1.7 17:09:13 10° N 17:13:37 54° W 17:14:45 42° SW
Atlas Centaur 2 4.2 17:09:40 17° NW 17:14:34 29° N 17:21:04 10° NE
Cosmos 1980 Rocket 2.3 17:14:37 29° WNW 17:17:13 49° WSW 17:22:43 10° SSE
Cosmos 1763 Rocket 3.8 17:15:52 35° WNW 17:17:23 44° WSW 17:22:28 10° S
CORIOLIS 4.1 17:13:20 10° NNE 17:18:46 85° WNW 17:24:16 10° SSW
Cosmos 2369 4.5 17:20:46 30° SW 17:20:49 30° SW 17:25:50 10° S
CZ-4C R/B 4.3 17:20:13 16° SSW 17:21:23 16° SSW 17:25:17 10° SSE
ARGOS Delta rocket 4.0 17:16:23 10° NNE 17:21:24 76° ESE 17:26:11 10° S
USA 229 DEB 4.1 17:23:20 29° WSW 17:25:46 38° WNW 17:31:39 10° N
USA 229 4.1 17:23:25 29° WSW 17:25:53 38° WNW 17:31:46 10° N
Cosmos 1898 Rocket 4.2 17:26:06 31° W 17:27:00 33° W 17:31:45 10° NNW
Feng Yun 1-1 Rocket 4.2 17:25:52 10° NNE 17:31:22 90° SSE 17:37:05 10° SSW
KORONAS-FOTON 3.7 17:31:17 10° NNW 17:35:06 79° W 17:39:01 10° S
PSLV R/B 4.0 17:32:01 10° SSE 17:36:14 83° ENE 17:40:25 10° NNW
Cosmos 2026 Rocket 4.3 17:30:49 10° NW 17:36:34 41° WSW 17:42:29 10° S
NOSS 3-1 (A) 3.8 17:34:58 24° WSW 17:37:51 39° WNW 17:42:51 10° N
Aureole 3 Rocket 3.4 17:36:46 27° SW 17:38:17 39° W 17:42:44 10° NNW
Cosmos 1939 Rocket 3.9 17:35:38 10° NNE 17:39:33 48° ESE 17:43:35 10° S
Cosmos 1570 Rocket 4.2 17:34:57 10° NW 17:40:08 49° WSW 17:45:25 10° S
Cosmos 540 Rocket 3.6 17:35:12 10° NW 17:40:17 53° WSW 17:45:25 10° SSE
Cosmos 2278 4.5 17:38:08 22° W 17:40:31 30° SW 17:45:32 10° S
SMAP 3.5 17:37:05 10° NNW 17:41:30 40° W 17:45:30 13° SSW
SL-16 R/B 2.3 17:36:13 10° NNW 17:41:55 83° ENE 17:47:40 10° SSE
CZ-4 R/B 2.6 17:38:47 10° NE 17:42:48 45° ESE 17:46:55 10° S
Cosmos 1689 Rocket 2.5 17:40:42 10° S 17:43:36 39° WSW 17:46:29 10° NW
FengYun 1-2 T 4.2 17:38:08 10° NNE 17:43:44 80° WNW 17:49:27 10° SSW
USA 234 3.3 17:37:52 10° NE 17:44:28 87° SE 17:50:12 15° SW
Cosmos 1626 3.0 17:41:28 10° N 17:45:08 53° E 17:48:51 10° SSE
Cosmos 1697 Rocket 4.0 17:44:40 19° SW 17:45:10 19° SW 17:49:13 10° S
Cosmos 841 Rocket 3.8 17:41:19 10° NW 17:46:23 46° WSW 17:51:33 10° S
Okean-O 2.9 17:43:57 10° NNE 17:48:23 70° ESE 17:52:54 10° S
CZ-4B R/B 4.1 17:45:08 10° NNW 17:49:54 29° W 17:54:39 11° SW
Cosmos 2228 2.9 17:45:45 10° S 17:50:07 82° W 17:54:23 10° N
Cosmos 372 Rocket 4.0 17:45:25 10° SSW 17:50:30 61° WNW 17:55:32 10° N
Cosmos 1953 3.4 17:50:07 22° WSW 17:51:09 25° W 17:54:27 10° NW
SL-14 R/B 3.9 17:47:28 10° N 17:51:21 59° E 17:55:15 10° SSE
Orbus 7S? 3.3 17:49:36 13° NW 17:52:18 75° SW 17:58:18 10° SE
Lacrosse 5 rocket 3.4 17:51:51 12° SSW 17:53:10 13° S 17:55:15 10° SSE
CZ-2D R/B 4.0 17:50:41 10° NNE 17:54:31 57° ESE 17:58:26 10° S
YAOGAN 6 3.6 17:52:35 10° NNW 17:55:37 25° W 17:57:05 19° WSW
Cosmos 2098 Rocket 4.1 17:50:29 10° N 17:56:02 81° E 18:02:57 10° S
Cosmos 1908 3.5 17:52:53 10° SSW 17:56:37 45° W 18:00:18 10° NNW
Meteor 2-19 Rocket 4.4 17:50:29 10° NNW 17:56:40 73° W 18:02:56 10° S
Cosmos 2150 Rocket 4.0 17:52:11 10° SSW 17:57:39 77° WNW 18:02:57 10° NNE
ATLAS 2AS CENTAUR R/B 4.5 17:53:31 10° SSW 17:57:54 19° SSE 18:02:30 10° ESE
Cosmos 1125 Rocket 3.8 17:52:52 10° SSW 17:58:11 71° ESE 18:03:25 10° NNE
Meteor 2-15 4.4 17:54:57 10° SSW 18:01:13 77° W 18:07:22 10° N
Cosmos 1300 3.3 17:57:59 10° S 18:01:52 61° E 18:05:40 10° NNE
CZ-4 R/B 4.4 17:59:12 10° NNE 18:03:21 84° WNW 18:07:35 10° SSW
Meteor 1-24 Rocket 3.7 18:01:19 10° N 18:06:42 86° E 18:12:07 10° S
ASTEX 1 3.7 18:02:05 10° NNW 18:06:48 45° W 18:11:36 10° SSW
Cosmos 1818 3.5 18:03:13 10° NW 18:08:39 85° SW 18:14:06 10° SSE
COSMO-SKYMED 1 2.6 18:04:41 10° S 18:09:05 64° WSW 18:13:24 10° NNW
Cosmos 1892 Rocket 3.5 18:04:49 10° NNW 18:09:19 78° W 18:13:50 10° S
ADEOS Rocket 2.9 18:05:59 10° S 18:11:20 50° WSW 18:16:45 10° NW
SL-24 R/B - RUBIN 2 4.3 18:08:07 10° NNW 18:12:53 60° ENE 18:17:14 10° SE
Cosmos 1655 Rocket 4.2 18:07:13 10° NNW 18:13:16 49° WSW 18:19:23 10° S
BREEZE-M DEB (TANK) 4.1 18:12:42 13° WSW 18:16:21 58° NNW 18:30:30 10° NE
ATLAS CENTAUR R/B 2.9 18:12:36 10° SSW 18:17:11 40° SE 18:21:45 10° ENE
Cosmos 1726 4.2 18:18:23 10° W 18:18:23 10° W 18:18:55 10° W
YAOGAN 1 2.6 18:14:39 10° NNE 18:19:02 90° SSW 18:23:27 10° SSW
Cosmos 2266 Rocket 4.1 18:13:55 10° NNW 18:20:08 58° WSW 18:26:19 10° S
Meteor 2-5 Rocket 3.8 18:16:32 10° NNW 18:22:00 54° WSW 18:27:31 10° S
Cosmos 2322 Rocket 2.3 18:16:24 10° NW 18:22:03 60° WSW 18:27:46 10° SSE
Cosmos 1356 Rocket 3.4 18:18:10 10° SSW 18:22:19 64° W 18:26:29 10° N
Cosmos 1674 4.0 18:21:52 10° WNW 18:24:37 19° WSW 18:27:25 10° SSW
USA 186 4.3 18:24:43 10° ENE 18:26:15 15° ESE 18:27:52 10° SSE
Aureole 3 4.4 18:24:38 10° SSW 18:28:28 26° W 18:31:38 10° NW
Helios 1A Rocket 4.2 18:25:27 10° NNW 18:28:41 22° W 18:31:58 10° SW
Cosmos 2058 Rocket 3.1 18:24:38 10° SSW 18:29:05 63° W 18:33:29 10° N
Cosmos 2315 Rocket 4.1 18:30:26 10° SSW 18:36:39 62° W 18:42:46 10° N
Cosmos 2263 Rocket 3.4 18:32:26 10° SW 18:36:54 24° W 18:41:21 10° NNW
ARGOS 4.2 18:32:44 10° NE 18:37:53 48° ESE 18:43:07 10° S
